Time,TemperatureF,DewpointF,PressureIn,WindDirection,WindDirectionDegrees,WindSpeedMPH,WindSpeedGustMPH,Humidity,HourlyPrecipIn,Conditions,Clouds,dailyrainin,SoftwareType,DateUTC
2017-05-29 00:03:00,59.3,57.9,29.68,ENE,74,0.0,0.0,95,0.00,,,0.00,WeatherCatV2.41B14,2017-05-29 04:03:00,
2017-05-29 00:08:00,59.3,57.9,29.68,SSE,155,0.0,0.0,95,0.00,,,0.00,WeatherCatV2.41B14,2017-05-29 04:08:00,
2017-05-29 00:13:00,59.3,57.9,29.68,SSE,160,0.0,0.0,95,0.00,,,0.00,WeatherCatV2.41B14,2017-05-29 04:13:00,
2017-05-29 00:18:00,59.4,58.0,29.67,SSE,160,0.0,0.0,95,0.00,,,0.00,WeatherCatV2.41B14,2017-05-29 04:18:00,
2017-05-29 00:23:00,59.5,58.1,29.67,North,0,1.0,3.0,95,0.00,,,0.00,WeatherCatV2.41B14,2017-05-29 04:23:00,
2017-05-29 00:28:00,59.6,58.2,29.67,North,0,3.0,4.0,95,0.00,,,0.00,WeatherCatV2.41B14,2017-05-29 04:28:00,
2017-05-29 00:33:00,59.8,58.7,29.68,North,0,6.0,10.0,96,0.00,,,0.00,WeatherCatV2.41B14,2017-05-29 04:33:00,
2017-05-29 00:38:00,59.6,58.2,29.68,North,0,9.0,11.0,95,0.00,,,0.00,WeatherCatV2.41B14,2017-05-29 04:38:00,
2017-05-29 00:43:00,59.4,58.0,29.68,North,0,3.0,6.0,95,0.00,,,0.00,WeatherCatV2.41B14,2017-05-29 04:43:00,
2017-05-29 00:53:00,59.3,57.9,29.68,North,0,3.0,5.0,95,0.00,,,0.00,WeatherCatV2.41B14,2017-05-29 04:53:00,
2017-05-29 00:58:00,59.2,57.8,29.68,North,0,0.0,3.0,95,0.00,,,0.00,WeatherCatV2.41B14,2017-05-29 04:58:00,
2017-05-29 01:03:00,59.2,57.8,29.68,North,0,1.0,2.0,95,0.00,,,0.00,WeatherCatV2.41B14,2017-05-29 05:03:00,
2017-05-29 01:08:00,59.1,57.4,29.68,North,0,0.0,2.0,94,0.00,,,0.00,WeatherCatV2.41B14,2017-05-29 05:08:00,
2017-05-29 01:13:00,59.0,57.3,29.67,North,0,0.0,0.0,94,0.00,,,0.00,WeatherCatV2.41B14,2017-05-29 05:13:00,
2017-05-29 01:18:00,58.9,57.2,29.68,North,0,0.0,0.0,94,0.00,,,0.00,WeatherCatV2.41B14,2017-05-29 05:18:00,
2017-05-29 01:23:00,58.7,57.0,29.68,North,0,0.0,0.0,94,0.00,,,0.00,WeatherCatV2.41B14,2017-05-29 05:23:00,
2017-05-29 01:28:00,58.4,56.7,29.68,North,0,0.0,0.0,94,0.00,,,0.00,WeatherCatV2.41B14,2017-05-29 05:28:00,
2017-05-29 01:33:00,58.2,56.5,29.68,North,0,0.0,0.0,94,0.00,,,0.00,WeatherCatV2.41B14,2017-05-29 05:33:00,
2017-05-29 01:38:00,58.0,56.3,29.68,North,0,0.0,1.0,94,0.00,,,0.00,WeatherCatV2.41B14,2017-05-29 05:38:00,
2017-05-29 01:43:00,57.8,55.8,29.68,North,0,0.0,3.0,93,0.00,,,0.00,WeatherCatV2.41B14,2017-05-29 05:43:00,
2017-05-29 01:48:00,57.6,55.6,29.68,North,0,0.0,1.0,93,0.00,,,0.00,WeatherCatV2.41B14,2017-05-29 05:48:00,
2017-05-29 01:53:00,57.5,55.5,29.68,North,0,0.0,1.0,93,0.00,,,0.00,WeatherCatV2.41B14,2017-05-29 05:53:00,
2017-05-29 01:58:00,57.3,55.3,29.68,North,0,0.0,0.0,93,0.00,,,0.00,WeatherCatV2.41B14,2017-05-29 05:58:00,
2017-05-29 02:03:00,57.1,55.1,29.68,North,0,0.0,0.0,93,0.00,,,0.00,WeatherCatV2.41B14,2017-05-29 06:03:00,
2017-05-29 02:08:00,56.9,54.9,29.69,North,0,0.0,0.0,93,0.00,,,0.00,WeatherCatV2.41B14,2017-05-29 06:08:00,
2017-05-29 02:13:00,56.7,54.7,29.69,North,0,0.0,0.0,93,0.00,,,0.00,WeatherCatV2.41B14,2017-05-29 06:13:00,
2017-05-29 02:18:00,56.6,54.6,29.69,North,0,0.0,0.0,93,0.00,,,0.00,WeatherCatV2.41B14,2017-05-29 06:18:00,
2017-05-29 02:23:00,56.5,54.5,29.69,North,0,0.0,0.0,93,0.00,,,0.00,WeatherCatV2.41B14,2017-05-29 06:23:00,
2017-05-29 02:28:00,56.3,54.3,29.70,North,0,0.0,0.0,93,0.00,,,0.00,WeatherCatV2.41B14,2017-05-29 06:28:00,
2017-05-29 02:33:00,56.2,54.2,29.70,North,0,0.0,0.0,93,0.00,,,0.00,WeatherCatV2.41B14,2017-05-29 06:33:00,
2017-05-29 02:38:00,56.0,54.0,29.70,North,0,0.0,0.0,93,0.00,,,0.00,WeatherCatV2.41B14,2017-05-29 06:38:00,
2017-05-29 02:43:00,55.9,53.9,29.70,North,0,0.0,0.0,93,0.00,,,0.00,WeatherCatV2.41B14,2017-05-29 06:43:00,
2017-05-29 02:44:00,55.9,53.9,29.70,North,0,0.0,0.0,93,0.00,,,0.00,WeatherCatV2.41B14,2017-05-29 06:44:00,
2017-05-29 02:49:00,55.8,53.8,29.70,North,0,0.0,0.0,93,0.00,,,0.00,WeatherCatV2.41B14,2017-05-29 06:49:00,
2017-05-29 02:54:00,55.6,53.9,29.70,North,0,0.0,0.0,94,0.00,,,0.00,WeatherCatV2.41B14,2017-05-29 06:54:00,
2017-05-29 02:59:00,55.5,53.8,29.69,North,0,0.0,0.0,94,0.00,,,0.00,WeatherCatV2.41B14,2017-05-29 06:59:00,
2017-05-29 03:04:00,55.4,53.7,29.69,North,0,0.0,0.0,94,0.00,,,0.00,WeatherCatV2.41B14,2017-05-29 07:04:00,
2017-05-29 03:09:00,55.3,53.6,29.68,North,0,0.0,0.0,94,0.00,,,0.00,WeatherCatV2.41B14,2017-05-29 07:09:00,
2017-05-29 03:14:00,55.2,53.5,29.69,South,179,0.0,2.0,94,0.00,,,0.00,WeatherCatV2.41B14,2017-05-29 07:14:00,
2017-05-29 03:19:00,55.3,53.6,29.69,North,0,0.0,3.0,94,0.00,,,0.00,WeatherCatV2.41B14,2017-05-29 07:19:00,
2017-05-29 03:24:00,55.4,53.7,29.69,North,0,1.0,1.0,94,0.00,,,0.00,WeatherCatV2.41B14,2017-05-29 07:24:00,
2017-05-29 03:29:00,55.5,54.1,29.69,North,0,0.0,2.0,95,0.00,,,0.00,WeatherCatV2.41B14,2017-05-29 07:29:00,
2017-05-29 03:34:00,55.5,54.1,29.69,North,0,0.0,1.0,95,0.00,,,0.00,WeatherCatV2.41B14,2017-05-29 07:34:00,
2017-05-29 03:39:00,55.5,54.1,29.69,SSE,152,0.0,2.0,95,0.00,,,0.00,WeatherCatV2.41B14,2017-05-29 07:39:00,
2017-05-29 03:44:00,55.5,54.1,29.69,SSE,152,2.0,3.0,95,0.00,,,0.00,WeatherCatV2.41B14,2017-05-29 07:44:00,
2017-05-29 03:49:00,55.4,54.0,29.69,SSE,152,0.0,0.0,95,0.00,,,0.00,WeatherCatV2.41B14,2017-05-29 07:49:00,
2017-05-29 03:54:00,55.4,54.0,29.69,SSE,152,1.0,3.0,95,0.00,,,0.00,WeatherCatV2.41B14,2017-05-29 07:54:00,
2017-05-29 03:59:00,55.3,53.9,29.69,SSE,157,0.0,2.0,95,0.00,,,0.00,WeatherCatV2.41B14,2017-05-29 07:59:00,
2017-05-29 04:04:00,55.3,53.9,29.69,SSE,161,4.0,4.0,95,0.00,,,0.00,WeatherCatV2.41B14,2017-05-29 08:04:00,
2017-05-29 04:09:00,55.2,53.8,29.69,SSE,161,0.0,0.0,95,0.00,,,0.00,WeatherCatV2.41B14,2017-05-29 08:09:00,
2017-05-29 04:14:00,55.2,53.8,29.69,SSE,161,0.0,0.0,95,0.00,,,0.00,WeatherCatV2.41B14,2017-05-29 08:14:00,
2017-05-29 04:19:00,55.1,53.7,29.69,SSE,161,0.0,0.0,95,0.00,,,0.00,WeatherCatV2.41B14,2017-05-29 08:19:00,
2017-05-29 04:24:00,55.0,53.6,29.69,SSE,161,0.0,1.0,95,0.00,,,0.00,WeatherCatV2.41B14,2017-05-29 08:24:00,
2017-05-29 04:29:00,55.0,53.6,29.69,South,171,0.0,2.0,95,0.00,,,0.00,WeatherCatV2.41B14,2017-05-29 08:29:00,
2017-05-29 04:34:00,55.0,53.6,29.70,North,0,0.0,6.0,95,0.00,,,0.00,WeatherCatV2.41B14,2017-05-29 08:34:00,
2017-05-29 04:39:00,55.1,54.0,29.70,North,0,3.0,3.0,96,0.00,,,0.00,WeatherCatV2.41B14,2017-05-29 08:39:00,
2017-05-29 04:44:00,55.1,54.0,29.70,SSE,167,0.0,4.0,96,0.00,,,0.00,WeatherCatV2.41B14,2017-05-29 08:44:00,
2017-05-29 04:49:00,55.2,54.1,29.71,North,0,0.0,4.0,96,0.00,,,0.00,WeatherCatV2.41B14,2017-05-29 08:49:00,
2017-05-29 04:54:00,55.2,54.1,29.71,South,178,2.0,2.0,96,0.00,,,0.01,WeatherCatV2.41B14,2017-05-29 08:54:00,
2017-05-29 04:59:00,55.2,54.1,29.71,South,178,0.0,0.0,96,0.00,,,0.01,WeatherCatV2.41B14,2017-05-29 08:59:00,
2017-05-29 05:04:00,55.2,54.1,29.71,North,0,1.0,3.0,96,0.00,,,0.01,WeatherCatV2.41B14,2017-05-29 09:04:00,
2017-05-29 05:09:00,55.2,54.1,29.72,South,182,1.0,4.0,96,0.00,,,0.01,WeatherCatV2.41B14,2017-05-29 09:09:00,
2017-05-29 05:14:00,55.1,54.0,29.72,North,0,1.0,2.0,96,0.00,,,0.01,WeatherCatV2.41B14,2017-05-29 09:14:00,
2017-05-29 05:19:00,55.1,54.0,29.72,North,0,0.0,3.0,96,0.00,,,0.01,WeatherCatV2.41B14,2017-05-29 09:19:00,
2017-05-29 05:24:00,55.0,53.9,29.72,South,179,0.0,1.0,96,0.00,,,0.01,WeatherCatV2.41B14,2017-05-29 09:24:00,
2017-05-29 05:29:00,55.0,53.9,29.72,North,0,3.0,4.0,96,0.00,,,0.01,WeatherCatV2.41B14,2017-05-29 09:29:00,
2017-05-29 05:34:00,54.9,53.8,29.72,North,0,0.0,0.0,96,0.00,,,0.01,WeatherCatV2.41B14,2017-05-29 09:34:00,
2017-05-29 05:39:00,54.9,53.8,29.72,North,0,0.0,0.0,96,0.00,,,0.01,WeatherCatV2.41B14,2017-05-29 09:39:00,
2017-05-29 05:44:00,54.8,53.7,29.72,North,0,0.0,1.0,96,0.00,,,0.01,WeatherCatV2.41B14,2017-05-29 09:44:00,
2017-05-29 05:49:00,54.6,53.5,29.73,North,0,0.0,0.0,96,0.00,,,0.01,WeatherCatV2.41B14,2017-05-29 09:49:00,
2017-05-29 05:54:00,54.5,53.4,29.72,North,0,0.0,0.0,96,0.00,,,0.01,WeatherCatV2.41B14,2017-05-29 09:54:00,
2017-05-29 05:55:00,54.5,53.4,29.72,North,0,0.0,0.0,96,0.00,,,0.01,WeatherCatV2.41B14,2017-05-29 09:55:00,
2017-05-29 06:00:00,54.3,53.2,29.72,North,0,0.0,0.0,96,0.00,,,0.01,WeatherCatV2.41B14,2017-05-29 10:00:00,
2017-05-29 06:05:00,54.1,53.0,29.72,North,0,0.0,0.0,96,0.00,,,0.01,WeatherCatV2.41B14,2017-05-29 10:05:00,
2017-05-29 06:10:00,53.9,52.8,29.73,North,0,0.0,0.0,96,0.00,,,0.01,WeatherCatV2.41B14,2017-05-29 10:10:00,
2017-05-29 06:15:00,53.7,52.6,29.73,North,0,1.0,3.0,96,0.00,,,0.01,WeatherCatV2.41B14,2017-05-29 10:15:00,
2017-05-29 06:19:00,53.5,52.4,29.73,North,0,0.0,0.0,96,0.00,,,0.01,WeatherCatV2.41B14,2017-05-29 10:19:00,
2017-05-29 06:25:00,53.3,52.2,29.73,ENE,63,0.0,1.0,96,0.00,,,0.01,WeatherCatV2.41B14,2017-05-29 10:25:00,
2017-05-29 06:30:00,53.2,52.1,29.73,South,180,0.0,1.0,96,0.00,,,0.01,WeatherCatV2.41B14,2017-05-29 10:30:00,
2017-05-29 06:35:00,53.1,52.0,29.73,South,180,0.0,0.0,96,0.00,,,0.01,WeatherCatV2.41B14,2017-05-29 10:35:00,
2017-05-29 06:40:00,53.1,52.0,29.73,South,179,0.0,0.0,96,0.00,,,0.01,WeatherCatV2.41B14,2017-05-29 10:40:00,
2017-05-29 06:45:00,53.1,52.0,29.73,South,179,0.0,0.0,96,0.00,,,0.01,WeatherCatV2.41B14,2017-05-29 10:45:00,
2017-05-29 06:50:00,53.2,52.1,29.74,South,179,0.0,1.0,96,0.00,,,0.01,WeatherCatV2.41B14,2017-05-29 10:50:00,
2017-05-29 06:55:00,53.3,52.2,29.74,South,175,2.0,2.0,96,0.00,,,0.01,WeatherCatV2.41B14,2017-05-29 10:55:00,
2017-05-29 07:00:00,53.8,53.0,29.74,North,0,0.0,2.0,97,0.00,,,0.01,WeatherCatV2.41B14,2017-05-29 11:00:00,
2017-05-29 07:05:00,54.1,53.0,29.75,North,0,0.0,0.0,96,0.00,,,0.01,WeatherCatV2.41B14,2017-05-29 11:05:00,
2017-05-29 07:10:00,54.4,53.6,29.75,North,0,0.0,1.0,97,0.00,,,0.01,WeatherCatV2.41B14,2017-05-29 11:10:00,
2017-05-29 07:15:00,54.8,54.0,29.76,North,0,1.0,3.0,97,0.00,,,0.01,WeatherCatV2.41B14,2017-05-29 11:15:00,
2017-05-29 07:20:00,55.1,54.3,29.76,ESE,120,1.0,2.0,97,0.00,,,0.01,WeatherCatV2.41B14,2017-05-29 11:20:00,
2017-05-29 07:25:00,55.4,54.6,29.76,North,0,0.0,1.0,97,0.00,,,0.01,WeatherCatV2.41B14,2017-05-29 11:25:00,
2017-05-29 07:30:00,55.7,54.9,29.76,North,0,0.0,1.0,97,0.00,,,0.01,WeatherCatV2.41B14,2017-05-29 11:30:00,
2017-05-29 07:35:00,56.0,55.2,29.76,North,0,0.0,4.0,97,0.00,,,0.01,WeatherCatV2.41B14,2017-05-29 11:35:00,
2017-05-29 07:40:00,56.3,55.5,29.76,North,0,0.0,2.0,97,0.00,,,0.01,WeatherCatV2.41B14,2017-05-29 11:40:00,
2017-05-29 07:45:00,56.6,55.8,29.76,SSE,153,3.0,8.0,97,0.00,,,0.01,WeatherCatV2.41B14,2017-05-29 11:45:00,
2017-05-29 07:50:00,56.9,56.1,29.76,North,0,3.0,3.0,97,0.00,,,0.01,WeatherCatV2.41B14,2017-05-29 11:50:00,
2017-05-29 07:51:00,57.0,56.2,29.76,North,0,0.0,4.0,97,0.00,,,0.01,WeatherCatV2.41B14,2017-05-29 11:51:00,
2017-05-29 07:56:00,57.2,56.3,29.77,South,173,0.0,0.0,97,0.00,,,0.01,WeatherCatV2.41B14,2017-05-29 11:56:00,
2017-05-29 08:01:00,57.5,56.7,29.77,North,0,2.0,4.0,97,0.00,,,0.01,WeatherCatV2.41B14,2017-05-29 12:01:00,
2017-05-29 08:06:00,57.8,57.0,29.77,North,0,0.0,4.0,97,0.00,,,0.01,WeatherCatV2.41B14,2017-05-29 12:06:00,
2017-05-29 08:11:00,58.1,57.2,29.77,North,0,3.0,3.0,97,0.00,,,0.01,WeatherCatV2.41B14,2017-05-29 12:11:00,
2017-05-29 08:16:00,58.5,57.7,29.77,North,0,1.0,4.0,97,0.00,,,0.01,WeatherCatV2.41B14,2017-05-29 12:16:00,
2017-05-29 08:21:00,58.9,58.0,29.77,North,0,2.0,3.0,97,0.00,,,0.01,WeatherCatV2.41B14,2017-05-29 12:21:00,
2017-05-29 08:26:00,59.3,58.5,29.77,North,0,1.0,3.0,97,0.00,,,0.01,WeatherCatV2.41B14,2017-05-29 12:26:00,
2017-05-29 08:31:00,59.6,58.5,29.77,North,0,3.0,4.0,96,0.00,,,0.01,WeatherCatV2.41B14,2017-05-29 12:31:00,
2017-05-29 08:35:00,60.0,58.8,29.77,North,0,1.0,2.0,96,0.00,,,0.01,WeatherCatV2.41B14,2017-05-29 12:35:00,
2017-05-29 08:40:00,60.5,59.3,29.77,South,181,0.0,0.0,96,0.00,,,0.01,WeatherCatV2.41B14,2017-05-29 12:40:00,
2017-05-29 08:45:00,60.9,59.5,29.77,North,0,3.0,5.0,95,0.00,,,0.01,WeatherCatV2.41B14,2017-05-29 12:45:00,
2017-05-29 08:50:00,61.4,59.7,29.77,North,0,0.0,5.0,94,0.00,,,0.01,WeatherCatV2.41B14,2017-05-29 12:50:00,
2017-05-29 08:55:00,61.8,59.8,29.77,SSE,165,2.0,4.0,93,0.00,,,0.01,WeatherCatV2.41B14,2017-05-29 12:55:00,
2017-05-29 09:00:00,62.3,59.3,29.77,North,0,2.0,5.0,90,0.00,,,0.01,WeatherCatV2.41B14,2017-05-29 13:00:00,
2017-05-29 09:05:00,63.1,60.1,29.77,SE,132,3.0,5.0,90,0.00,,,0.01,WeatherCatV2.41B14,2017-05-29 13:05:00,
2017-05-29 09:10:00,63.4,59.1,29.77,North,0,3.0,4.0,86,0.00,,,0.01,WeatherCatV2.41B14,2017-05-29 13:10:00,
2017-05-29 09:15:00,63.7,58.4,29.77,North,0,2.0,4.0,83,0.00,,,0.01,WeatherCatV2.41B14,2017-05-29 13:15:00,
2017-05-29 09:20:00,64.2,58.9,29.76,SE,124,1.0,3.0,83,0.00,,,0.01,WeatherCatV2.41B14,2017-05-29 13:20:00,
2017-05-29 09:25:00,64.6,58.6,29.76,North,0,4.0,9.0,81,0.00,,,0.01,WeatherCatV2.41B14,2017-05-29 13:25:00,
2017-05-29 09:30:00,65.2,58.9,29.76,SSE,153,4.0,9.0,80,0.00,,,0.01,WeatherCatV2.41B14,2017-05-29 13:30:00,
2017-05-29 09:36:00,65.9,59.2,29.76,North,0,2.0,9.0,79,0.00,,,0.01,WeatherCatV2.41B14,2017-05-29 13:36:00,
2017-05-29 09:41:00,66.6,59.9,29.76,North,0,1.0,6.0,79,0.00,,,0.01,WeatherCatV2.41B14,2017-05-29 13:41:00,
2017-05-29 09:45:00,67.2,59.7,29.76,SSE,148,4.0,6.0,77,0.00,,,0.01,WeatherCatV2.41B14,2017-05-29 13:45:00,
2017-05-29 09:50:00,67.7,59.8,29.76,SSE,158,2.0,10.0,76,0.00,,,0.01,WeatherCatV2.41B14,2017-05-29 13:50:00,
2017-05-29 09:55:00,68.3,59.3,29.76,SSE,160,2.0,5.0,73,0.00,,,0.01,WeatherCatV2.41B14,2017-05-29 13:55:00,
2017-05-29 10:01:00,68.6,59.6,29.76,North,0,4.0,4.0,73,0.00,,,0.01,WeatherCatV2.41B14,2017-05-29 14:01:00,
2017-05-29 10:06:00,68.6,60.0,29.76,North,0,4.0,5.0,74,0.00,,,0.01,WeatherCatV2.41B14,2017-05-29 14:06:00,
2017-05-29 10:11:00,68.6,60.3,29.76,North,0,4.0,6.0,75,0.00,,,0.01,WeatherCatV2.41B14,2017-05-29 14:11:00,
2017-05-29 10:16:00,68.4,59.4,29.76,SSE,150,6.0,7.0,73,0.00,,,0.01,WeatherCatV2.41B14,2017-05-29 14:16:00,
2017-05-29 10:21:00,68.2,59.2,29.76,North,0,0.0,0.0,73,0.00,,,0.01,WeatherCatV2.41B14,2017-05-29 14:21:00,
2017-05-29 10:26:00,68.3,60.4,29.76,East,90,4.0,7.0,76,0.00,,,0.01,WeatherCatV2.41B14,2017-05-29 14:26:00,
2017-05-29 10:31:00,68.5,60.6,29.76,ESE,119,1.0,4.0,76,0.00,,,0.01,WeatherCatV2.41B14,2017-05-29 14:31:00,
2017-05-29 10:36:00,68.8,60.2,29.76,ESE,113,0.0,9.0,74,0.00,,,0.01,WeatherCatV2.41B14,2017-05-29 14:36:00,
2017-05-29 10:41:00,69.1,60.1,29.76,SE,134,2.0,8.0,73,0.00,,,0.01,WeatherCatV2.41B14,2017-05-29 14:41:00,
2017-05-29 10:46:00,69.3,59.9,29.76,SSE,155,1.0,4.0,72,0.00,,,0.01,WeatherCatV2.41B14,2017-05-29 14:46:00,
2017-05-29 10:51:00,69.6,59.4,29.76,North,0,0.0,3.0,70,0.00,,,0.01,WeatherCatV2.41B14,2017-05-29 14:51:00,
2017-05-29 10:56:00,69.8,60.0,29.76,SSW,193,4.0,6.0,71,0.00,,,0.01,WeatherCatV2.41B14,2017-05-29 14:56:00,
2017-05-29 11:01:00,70.1,59.4,29.76,North,0,0.0,4.0,69,0.00,,,0.01,WeatherCatV2.41B14,2017-05-29 15:01:00,
2017-05-29 11:06:00,70.5,59.4,29.75,North,0,3.0,10.0,68,0.00,,,0.01,WeatherCatV2.41B14,2017-05-29 15:06:00,
2017-05-29 11:11:00,71.0,60.3,29.75,South,185,3.0,5.0,69,0.00,,,0.01,WeatherCatV2.41B14,2017-05-29 15:11:00,
2017-05-29 11:16:00,71.3,58.5,29.75,SSE,165,4.0,5.0,64,0.00,,,0.01,WeatherCatV2.41B14,2017-05-29 15:16:00,
2017-05-29 11:21:00,71.7,60.1,29.75,North,0,3.0,6.0,67,0.00,,,0.01,WeatherCatV2.41B14,2017-05-29 15:21:00,
2017-05-29 11:26:00,72.1,59.2,29.75,South,170,6.0,11.0,64,0.00,,,0.01,WeatherCatV2.41B14,2017-05-29 15:26:00,
2017-05-29 11:31:00,72.3,58.5,29.76,SE,128,4.0,8.0,62,0.00,,,0.01,WeatherCatV2.41B14,2017-05-29 15:31:00,
2017-05-29 11:36:00,72.5,60.5,29.76,North,0,4.0,8.0,66,0.00,,,0.01,WeatherCatV2.41B14,2017-05-29 15:36:00,
2017-05-29 11:41:00,73.0,60.5,29.75,SSE,155,7.0,7.0,65,0.00,,,0.01,WeatherCatV2.41B14,2017-05-29 15:41:00,
2017-05-29 11:46:00,73.3,61.7,29.75,North,0,4.0,4.0,67,0.00,,,0.01,WeatherCatV2.41B14,2017-05-29 15:46:00,
2017-05-29 11:51:00,73.5,60.6,29.75,SSE,163,2.0,9.0,64,0.00,,,0.01,WeatherCatV2.41B14,2017-05-29 15:51:00,
2017-05-29 11:56:00,73.8,61.3,29.76,East,82,5.0,10.0,65,0.00,,,0.01,WeatherCatV2.41B14,2017-05-29 15:56:00,
2017-05-29 12:01:00,74.2,62.1,29.76,SE,135,9.0,13.0,66,0.00,,,0.01,WeatherCatV2.41B14,2017-05-29 16:01:00,
2017-05-29 12:06:00,74.5,61.5,29.76,North,0,0.0,9.0,64,0.00,,,0.01,WeatherCatV2.41B14,2017-05-29 16:06:00,
2017-05-29 12:12:00,74.7,61.7,29.76,East,94,1.0,5.0,64,0.00,,,0.01,WeatherCatV2.41B14,2017-05-29 16:12:00,
2017-05-29 12:17:00,74.9,62.8,29.76,East,83,9.0,9.0,66,0.00,,,0.01,WeatherCatV2.41B14,2017-05-29 16:17:00,
2017-05-29 12:22:00,75.1,61.6,29.75,SSE,168,7.0,8.0,63,0.00,,,0.01,WeatherCatV2.41B14,2017-05-29 16:22:00,
2017-05-29 12:27:00,75.1,60.2,29.75,East,82,0.0,10.0,60,0.00,,,0.01,WeatherCatV2.41B14,2017-05-29 16:27:00,
2017-05-29 12:32:00,75.3,58.5,29.75,North,0,10.0,12.0,56,0.00,,,0.01,WeatherCatV2.41B14,2017-05-29 16:32:00,
2017-05-29 12:37:00,75.2,58.9,29.75,South,180,6.0,8.0,57,0.00,,,0.01,WeatherCatV2.41B14,2017-05-29 16:37:00,
2017-05-29 12:42:00,75.3,60.4,29.75,East,82,0.0,8.0,60,0.00,,,0.01,WeatherCatV2.41B14,2017-05-29 16:42:00,
2017-05-29 12:47:00,75.8,60.4,29.75,North,0,6.0,9.0,59,0.00,,,0.01,WeatherCatV2.41B14,2017-05-29 16:47:00,
2017-05-29 12:52:00,76.2,61.3,29.75,South,175,2.0,12.0,60,0.00,,,0.01,WeatherCatV2.41B14,2017-05-29 16:52:00,
2017-05-29 12:57:00,76.6,60.7,29.75,North,0,5.0,10.0,58,0.00,,,0.01,WeatherCatV2.41B14,2017-05-29 16:57:00,
2017-05-29 13:02:00,76.5,59.1,29.75,South,179,0.0,7.0,55,0.00,,,0.01,WeatherCatV2.41B14,2017-05-29 17:02:00,
2017-05-29 13:07:00,76.4,59.5,29.75,SE,128,4.0,6.0,56,0.00,,,0.01,WeatherCatV2.41B14,2017-05-29 17:07:00,